Overview Statistics Trail Chart Weather Telemetry Raw packets
 

This is the latest recevied weather packets stored in our database for station/object OM6ACB-6. If no packets are shown the sender has not sent any weather packets the latest 10 day(s).

<< 5 6 7 8 9 10 11 >>
Time Temp. Humidity Pressure Rain* Wind** Luminosity Snow
1788564348 17.78° C 24% 1016.8 hPa 0 mm - - -
1788563747 17.78° C 24% 1016.8 hPa 0 mm - - -
1788563147 17.78° C 24% 1016.9 hPa 0 mm - - -
1788562547 18.33° C 23% 1016.9 hPa 0 mm - - -
1788561947 18.89° C 23% 1016.8 hPa 0 mm - - -
1788561346 17.78° C 24% 1016.8 hPa 0 mm - - -
1788560746 18.33° C 23% 1016.9 hPa 0 mm - - -
1788560146 18.33° C 23% 1016.8 hPa 0 mm - - -
1788559545 17.78° C 24% 1010.4 hPa 0 mm - - -
1788558945 17.22° C 24% 1016.9 hPa 0 mm - - -
1788558345 16.67° C 24% 1016.9 hPa 0 mm - - -
1788557744 16.67° C 24% 1017.1 hPa 0 mm - - -
1788557144 16.67° C 24% 1017.2 hPa 0 mm - - -
1788556544 18.33° C 23% 1017.5 hPa 0 mm - - -
1788555944 18.33° C 23% 1017.5 hPa 0 mm - - -
1788555343 17.78° C 24% 1017.5 hPa 0 mm - - -
1788554743 18.89° C 23% 1017.6 hPa 0 mm - - -
1788554143 19.44° C 23% 1017.8 hPa 0 mm - - -
1788553542 20° C 23% 1017.8 hPa 0 mm - - -
1788552942 20.56° C 22% 1018 hPa 0 mm - - -
1788552342 21.11° C 22% 1018.2 hPa 0 mm - - -
1788551742 21.67° C 22% 1018.3 hPa 0 mm - - -
1788551141 21.11° C 22% 1018.2 hPa 0 mm - - -
1788550541 21.11° C 22% 1018.4 hPa 0 mm - - -
1788549941 21.11° C 22% 1018.3 hPa 0 mm - - -

* Rain latest hour (hover to see other rain measurements)
** Current wind speed in m/s (hover to see current wind gust speed)